[Iaude] MPEC P61: 2024 EW [a=1.25,e=0.14,i=3.7,H=25.59]
    mpec at cfa.harvard.edu 
    mpec at cfa.harvard.edu
       
    Sun Aug  4 10:50:07 EDT 2024
    
    
  
M.P.E.C. 2024-P61                                Issued 2024 August 4, 14:48 UT
     The Minor Planet Electronic Circulars contain information on unusual
         minor planets, routine data on comets and natural satellites,
         and occasional editorial announcements.  They are published
    on behalf of Division F of the International Astronomical Union by the
          Minor Planet Center, Smithsonian Astrophysical Observatory,
                          Cambridge, MA 02138, U.S.A.
			  
             Prepared using the Tamkin Foundation Computer Network
                              MPC at CFA.HARVARD.EDU
            URL https://www.minorplanetcenter.net/    ISSN 1523-6714
                                    2024 EW                                     
                           Revision to MPEC 2024-E38                            
Additional Observations:
     K24E00W  C2017 02 01.42649309 41 17.266+37 42 09.83         22.75GVEP061F51
     K24E00W  C2017 02 01.43786209 41 16.470+37 42 10.13         22.43GVEP061F51
     K24E00W  C2017 02 01.46063509 41 14.852+37 42 10.50         21.72GVEP061F51
     K24E00W  C2017 02 05.29425209 38 27.394+37 33 52.90         21.78GVEP061F51
     K24E00W  C2017 02 05.44654109 38 15.637+37 33 35.43         22.22GVEP061F51
     K24E00W  C2017 02 27.30790909 19 04.112+31 21 56.90         21.69GVEP061F51
     K24E00W  C2017 02 27.31949309 19 03.320+31 21 36.88         21.56GVEP061F51
     K24E00W  C2017 02 27.33105409 19 02.502+31 21 16.66         21.78GVEP061F51
     K24E00W  C2017 02 27.34273009 19 01.690+31 20 56.07         21.64GVEP061F51
     K24E00W  C2017 03 17.24164 09 21 22.540+19 35 37.02         22.1 wLEP061F51
     K24E00W  C2017 03 17.26637 09 21 23.018+19 34 31.86         22.1 wLEP061F51
     K24E00W  C2017 03 17.27869 09 21 23.204+19 33 58.81         21.7 wLEP061F51
     K24E00W  C2017 03 27.35639609 33 17.806+11 46 47.26         22.21GVEP061F51
     K24E00W  C2017 03 27.36784509 33 18.496+11 46 15.11         21.71GVEP061F51
     K24E00W  C2017 03 27.37915209 33 19.183+11 45 42.88         22.10GVEP061F51
     K24E00W  C2017 03 27.39051309 33 19.852+11 45 11.13         22.17GVEP061F51
Observer details:
F51 Pan-STARRS 1, Haleakala.  Observers J. Herman, T. Lowe, P. Minguez, A.
    Schultz, I. Smith, B. Gibson, T. Goggia, S. Kahale, M. Willman.  Measurers
    K. Chambers, T. de Boer, J. Fairlamb, H. Gao, M. Huber, C.-C. Lin, E.
    Magnier, Y. Ramanjooloo, R. Wainscoat, R. Weryk, S. Chastel, L. Denneau,
    H. Flewelling, E. Lilly, C. Waters.  1.8-m Ritchey-Chretien + CCD.
First and last observations above in comparison with prediction:
Residuals in seconds of arc (or two decimals in degrees), reference and Delta-T
170201 F51 0.87- 0.36-    170327 F51 0.89- 0.43-    MPO845962   +0.00 days
Orbital elements:
2024 EW                                                  Earth MOID = 0.0795 AU
Epoch 2024 Oct. 17.0 TT = JDT 2460600.5                 Veres                   
M 149.30600              (2000.0)            P               Q                  
n   0.70408257     Peri.  178.17415     -0.99852260     -0.05431866             
a   1.2513736      Node   358.70942     +0.04900446     -0.88868917             
e   0.1420376      Incl.    3.68349     +0.02347708     -0.45528128             
P   1.40           H   25.59          G   0.15           U   0                  
Residuals in seconds of arc
170201 F51  0.0   0.1+    240303 I52  0.3-  0.2-    240316 807  0.2+  0.1-
170201 F51  0.1+  0.1-    240303 I52  0.9+  1.4+    240316 807  0.5+  0.1-
170201 F51  0.3+  0.0     240303 I52  0.1-  0.3-    240319 691  0.2+  0.4+
170205 F51  0.4-  0.1+    240303 F52  0.2+  0.1-    240319 691  0.1+  0.1-
170205 F51  0.1-  0.1-    240303 F52  0.2+  0.0     240319 691  0.1+  0.4+
170227 F51  0.1+  0.1-    240304 H21  0.2+  0.1+    240328 O18  0.2+  0.0
170227 F51  0.1+  0.0     240304 H21  0.2+  0.0     240328 O18  0.4+  0.1+
170227 F51  0.0   0.0     240304 H21  0.3-  0.1+    240328 O18  0.3+  0.8-
170227 F51  0.2+  0.1+    240305 691  0.0   0.2-    240329 O18  0.1+  0.2+
170317 F51  0.4-  0.0     240305 691  0.0   0.2+    240329 O18  0.1-  0.3-
170317 F51  0.1+  0.0     240305 691  0.2+  0.0     240331 O18  0.2-  0.3+
170317 F51  0.1-  0.3-    240306 F51  0.2-  0.1+    240331 O18  0.1-  0.2-
170327 F51  0.1-  0.0     240306 F51  0.1+  0.3-    240407 H21  0.2-  0.1-
170327 F51  0.1+  0.2+    240306 F51  0.1-  0.1-    240407 H21  0.1-  0.1-
170327 F51  0.2+  0.1-    240306 F51  0.4-  0.2-    240407 H21  0.1-  0.2-
170327 F51  0.1-  0.3+    240307 033  0.3-  0.3+    240411 V06  0.0   0.0
240302 F51  0.0   0.0     240307 033  0.1-  0.1+    240411 V06  0.0   0.0
240302 F51  0.1+  0.1+    240307 033  0.1+  0.3+    240411 V06  0.2-  0.0
240302 F51  0.0   0.1+    240307 033  0.4+  0.1+    240411 V06  0.0   0.1+
240303 I52  0.6-  0.2-    240316 807  0.0   0.2+
Ephemeris:
2024 EW                  a,e,i = 1.25, 0.14, 4                   q = 1.0736
Date    TT    R. A. (2000) Decl.     Delta      r    Elong.  Phase     V
2024 07 05    14 29 37.3 -28 24 21   0.3541  1.2333   120.2    45.4    25.5
...
2024 07 20    15 12 20.8 -28 51 55   0.4349  1.2661   115.6    46.4    26.1
...
2024 07 28    15 35 05.5 -28 59 29   0.4824  1.2831   113.0    46.8    26.3
...
2024 08 03    15 52 07.4 -29 01 45   0.5200  1.2955   111.0    47.0    26.5
2024 08 04    15 54 57.7 -29 01 50   0.5264  1.2976   110.7    47.0    26.5
2024 08 05    15 57 48.1 -29 01 51   0.5329  1.2996   110.3    47.1    26.6
...
2024 08 11    16 14 50.4 -29 00 06   0.5726  1.3115   108.3    47.2    26.7
...
2024 08 19    16 37 32.5 -28 52 38   0.6277  1.3269   105.6    47.3    27.0
...
2024 09 03    17 19 54.9 -28 20 45   0.7374  1.3533   100.5    47.1    27.4
A. U. Tomatic                (C) Copyright 2024 MPC           M.P.E.C. 2024-P61
    
    
More information about the Iaude
mailing list